Regional Weather Roundup
Issued by NWS

Home | Current Version | Previous Version | Text Only | Print | Product List | Glossary On
Versions: 1 2 3 4 5 6 7 8 9 10 11 12 13 14 15 16 17 18 19 20 21 22 23 24 25 26 27 28 29 30 31 32 33 34 35 36 37 38 39 40 41 42 43 44 45 46 47 48 49 50
000
ASUS45 KPSR 251510
RWRAZ

ARIZONA HOURLY REGIONAL WEATHER ROUNDUP
NATIONAL WEATHER SERVICE PHOENIX AZ
800 AM MST WED MAY 25 2016

NOTE: FAIR INDICATES FEW OR NO CLOUDS BELOW 12,000 FEET WITH NO
SIGNIFICANT WEATHER AND/OR OBSTRUCTIONS TO VISIBILITY.

AZZ001>003-036-251600-
NORTHWEST ARIZONA

CITY           SKY/WX    TMP DP  RH WIND       PRES   REMARKS
BULLHEAD CITY  SUNNY     70  34  26 CALM      29.96R
KINGMAN        SUNNY     62  26  25 W5        30.01R
$$

AZZ004>008-015-016-018-251600-
NORTH CENTRAL ARIZONA

CITY           SKY/WX    TMP DP  RH WIND       PRES   REMARKS
GRAND CANYON   SUNNY     53  18  25 SW12      30.13R
PRESCOTT       SUNNY     58  22  24 S6        30.09R
FLAGSTAFF      SUNNY     51  25  36 SW14G21   30.14S
PAYSON         SUNNY     61  25  25 CALM      30.13R
PAGE           SUNNY     61  22  22 NW3       30.05R
$$

AZZ009>014-017-251600-
NORTHEAST ARIZONA

CITY           SKY/WX    TMP DP  RH WIND       PRES   REMARKS
WINSLOW        SUNNY     57  25  29 E6        30.11S
SAINT JOHNS    SUNNY     59  23  25 NE5       30.13S
WINDOW ROCK    SUNNY     57  24  28 CALM      30.17S
SHOW LOW       SUNNY     55  27  33 S18       30.16S
$$

AZZ023-251600-
GREATER PHOENIX AREA

CITY           SKY/WX    TMP DP  RH WIND       PRES   REMARKS
PHOENIX        SUNNY     71  33  24 E6        29.95R
BUCKEYE        SUNNY     72  28  20 W5        29.97R
GLENDALE       SUNNY     72  28  20 CALM      29.97R
LUKE AFB       SUNNY     72  30  21 E3        29.95R
DEER VALLEY    SUNNY     71  26  18 S5        29.96R
SCOTTSDALE     SUNNY     71  28  20 SE5       29.99R
MESA-GATEWAY   SUNNY     70  34  26 SE6       29.98R
CHANDLER       SUNNY     73  41  31 SE5       29.96R
$$

AZZ027-028-251600-
SOUTHWEST MARICOPA COUNTY AND PINAL COUNTY

CITY           SKY/WX    TMP DP  RH WIND       PRES   REMARKS
CASA GRANDE    SUNNY     72  39  30 S7        29.99R
GILA BEND      SUNNY     72  29  20 W1        29.95R
$$

AZZ503-504-507>509-251600-
SOUTHEAST ARIZONA

CITY           SKY/WX    TMP DP  RH WIND       PRES   REMARKS
TUCSON         SUNNY     71  34  25 SE5       30.04R
DAVIS-MONTHAN  SUNNY     72  35  25 SE3       30.02S
RYAN FIELD     SUNNY     66  36  32 N3        30.03S
NOGALES        SUNNY     70  33  25 S9        30.08S
SIERRA VISTA   SUNNY     70  23  17 SE3       30.12R
DOUGLAS        SUNNY     69  31  24 S10       30.11R
SAFFORD        SUNNY     73  25  16 E8        30.03S
$$

AZZ020-021-025-026-031-251600-
SOUTHWEST ARIZONA

CITY           SKY/WX    TMP DP  RH WIND       PRES   REMARKS
YUMA           NOT AVBL
$$

CAZ031-033-041-043-047-048-061-251600-
SOUTHERN CALIFORNIA

CITY           SKY/WX    TMP DP  RH WIND       PRES   REMARKS
DOWNTOWN L.A.  PTSUNNY   60  52  74 VRB3      30.06R
L.A. AIRPORT   MOSUNNY   60  51  72 CALM      30.07R
SAN DIEGO      MOSUNNY   64  52  64 VRB3      30.08S
BURBANK        CLOUDY    58  49  72 CALM      30.06R HAZE
ONTARIO        PTSUNNY   58  49  72 W7        30.06R
RIVERSIDE      MOSUNNY   59  49  69 W6        30.07R
PALM SPRINGS   SUNNY     68  41  37 W16G24    29.96R
EL CENTRO NAS  MOSUNNY   69  40  34 W20       29.98R
IMPERIAL       SUNNY     68  42  38 W14       29.95R
BLYTHE         SUNNY     64  48  56 NE3       29.94R
NEEDLES        SUNNY     73  38  27 SW9       29.93R
$$

NVZ020-UTZ003-251600-
SOUTHERN NEVADA-UTAH

CITY           SKY/WX    TMP DP  RH WIND       PRES   REMARKS
LAS VEGAS      MOSUNNY   66  37  34 CALM      29.92R
SALT LAKE CITY PTSUNNY   60  41  49 CALM      30.02R
$$

NMZ009-TXZ055-251600-
NEW MEXICO-WEST TEXAS

CITY           SKY/WX    TMP DP  RH WIND       PRES   REMARKS
ALBUQUERQUE    SUNNY     65  16  15 CALM      30.15S
EL PASO        SUNNY     77  27  15 W7        30.10R
$$


........................KEY........................
SKY/WX - SKY CONDITION/WEATHER
TMP    - TEMPERATURE IN FAHRENHEIT
DP     - DEW POINT IN FAHRENHEIT
RH     - RELATIVE HUMIDITY IN PERCENT
WIND   - DIRECTION AND SPEED IN MILES PER HOUR (MPH)
VRB    - VARIABLE WIND DIRECTION
PRES   - MEAN SEA LEVEL PRESSURE IN INCHES OF MERCURY
         F - FALLING PRESSURE   R - RISING PRESSURE
         S - STEADY PRESSURE
VSB    - VISIBILITY IN MILES
HX     - HEAT INDEX IN FAHRENHEIT
WCI    - WIND CHILL INDEX IN FAHRENHEIT
TC     - TEMPERATURE IN CELSIUS WHICH IS ALSO KNOWN AS
         TEMPERATURE IN CENTIGRADE
AFB    - AIR FORCE BASE
         LUKE AFB IS LUKE AIR FORCE BASE
         DAVIS-MONTHAN IS DAVIS-MONTHAN AIR FORCE BASE
NAS    - NAVAL AIR STATION
         EL CENTRO NAS IS EL CENTRO NAVAL AIR STATION
N/A    - NOT AVAILABLE




USA.gov is the U.S. government's official web portal to all federal, state and local government web resources and services.